GW2757 Weather Reports


Display with metric or nautical units.
time (UTC)temp
F
wind
direction
speed
MPH
gust
MPH
rain 1hr
in
rain 24hr
in
rain mn
in
humidity
%
barometer
mb
20260906233039 81 0 0.0 0.0 0.00 0.00 0.00 23 1012.4
20260906232521 81 0 0.0 0.0 0.00 0.00 0.00 23 1012.4
20260906232019 81 0 0.0 0.0 0.00 0.00 0.00 23 1012.4
20260906231536 82 0 0.0 0.0 0.00 0.00 0.00 21 1012.5
20260906231015 82 0 0.0 0.0 0.00 0.00 0.00 22 1012.5
20260906230518 82 0 0.0 0.0 0.00 0.00 0.00 21 1012.6
20260906230035 82 0 0.0 0.0 0.00 0.00 0.00 22 1012.7
20260906225521 82 0 0.0 13.0 0.00 0.00 0.00 23 1012.7
20260906225020 82 0 0.0 13.0 0.00 0.00 0.00 22 1012.7
20260906224541 82 194 6.0 11.0 0.00 0.00 0.00 21 1012.8
20260906224019 82 0 0.0 0.0 0.00 0.00 0.00 21 1012.7
20260906223516 82 0 0.0 0.0 0.00 0.00 0.00 20 1012.7
20260906223037 82 0 0.0 0.0 0.00 0.00 0.00 19 1012.9
20260906222518 82 0 0.0 0.0 0.00 0.00 0.00 18 1013.1
20260906222018 82 0 0.0 0.0 0.00 0.00 0.00 19 1013.1
20260906221538 82 0 0.0 12.0 0.00 0.00 0.00 19 1013.3
20260906221018 82 0 0.0 17.0 0.00 0.00 0.00 18 1013.2
20260906220518 82 183 9.0 23.0 0.00 0.00 0.00 20 1013.2
20260906220040 82 157 11.0 23.0 0.00 0.00 0.00 19 1013.3
20260906215521 82 164 1.0 14.0 0.00 0.00 0.00 19 1013.4
20260906215020 83 0 0.0 0.0 0.00 0.00 0.00 16 1013.3
20260906214546 83 0 0.0 0.0 0.00 0.00 0.00 18 1013.4
20260906214016 83 0 0.0 0.0 0.00 0.00 0.00 17 1013.3
20260906213517 83 0 0.0 0.0 0.00 0.00 0.00 17 1013.4
20260906213040 83 0 0.0 0.0 0.00 0.00 0.00 16 1013.3
20260906212520 83 0 0.0 0.0 0.00 0.00 0.00 17 1013.2
20260906212019 83 0 0.0 0.0 0.00 0.00 0.00 17 1013.2
20260906211540 83 0 0.0 0.0 0.00 0.00 0.00 17 1013.3
20260906211019 83 0 0.0 19.0 0.00 0.00 0.00 17 1013.2
20260906210518 83 0 0.0 19.0 0.00 0.00 0.00 16 1013.3
20260906210044 83 189 8.0 19.0 0.00 0.00 0.00 17 1013.4
20260906205516 83 0 0.0 0.0 0.00 0.00 0.00 16 1013.4
20260906205019 83 0 0.0 0.0 0.00 0.00 0.00 16 1013.5
20260906204537 83 0 0.0 0.0 0.00 0.00 0.00 17 1013.5
20260906204018 83 0 0.0 0.0 0.00 0.00 0.00 16 1013.7
20260906203519 83 0 0.0 0.0 0.00 0.00 0.00 15 1013.6
20260906203035 84 0 0.0 0.0 0.00 0.00 0.00 15 1013.6
20260906202518 84 0 0.0 0.0 0.00 0.00 0.00 16 1013.6
20260906202021 84 0 0.0 0.0 0.00 0.00 0.00 16 1013.5
20260906201549 84 0 0.0 0.0 0.00 0.00 0.00 17 1013.5
20260906201017 84 0 0.0 12.0 0.00 0.00 0.00 18 1013.6
20260906200518 83 0 0.0 16.0 0.00 0.00 0.00 19 1013.7
20260906200036 83 169 8.0 22.0 0.00 0.00 0.00 18 1013.5
20260906195518 83 182 12.0 22.0 0.00 0.00 0.00 19 1013.6
20260906195018 83 188 10.0 23.0 0.00 0.00 0.00 19 1013.7
20260906194542 82 171 11.0 23.0 0.00 0.00 0.00 20 1013.8
20260906194019 82 205 12.0 19.0 0.00 0.00 0.00 20 1014.0
20260906193519 82 190 8.0 23.0 0.00 0.00 0.00 21 1014.0
20260906193036 82 194 12.0 23.0 0.00 0.00 0.00 20 1014.2
20260906192517 82 186 8.0 23.0 0.00 0.00 0.00 21 1014.4
20260906192020 82 198 10.0 23.0 0.00 0.00 0.00 21 1014.3
20260906191544 82 185 9.0 21.0 0.00 0.00 0.00 20 1014.4
20260906191017 82 175 10.0 20.0 0.00 0.00 0.00 20 1014.5
20260906190518 81 173 10.0 20.0 0.00 0.00 0.00 20 1014.7
20260906190042 81 156 9.0 21.0 0.00 0.00 0.00 19 1014.9
20260906185524 81 173 9.0 24.0 0.00 0.00 0.00 19 1015.0
20260906185016 81 171 13.0 24.0 0.00 0.00 0.00 19 1015.0
20260906184545 81 158 13.0 22.0 0.00 0.00 0.00 20 1015.1
20260906184020 81 186 7.0 17.0 0.00 0.00 0.00 20 1015.1
20260906183519 81 165 10.0 17.0 0.00 0.00 0.00 20 1015.3
20260906183044 80 105 5.0 19.0 0.00 0.00 0.00 21 1015.3
20260906182520 80 141 10.0 23.0 0.00 0.00 0.00 20 1015.4
20260906182021 80 194 8.0 23.0 0.00 0.00 0.00 23 1015.5
20260906181555 80 168 12.0 20.0 0.00 0.00 0.00 21 1015.5
20260906181018 79 170 9.0 21.0 0.00 0.00 0.00 22 1015.6
20260906180520 79 136 10.0 21.0 0.00 0.00 0.00 22 1015.5
20260906180040 79 188 9.0 16.0 0.00 0.00 0.00 22 1015.6
20260906175518 79 190 9.0 16.0 0.00 0.00 0.00 24 1015.8
20260906175022 78 170 6.0 22.0 0.00 0.00 0.00 23 1016.0
20260906174537 78 170 9.0 22.0 0.00 0.00 0.00 23 1016.0
20260906174019 78 176 6.0 16.0 0.00 0.00 0.00 23 1016.0
20260906173520 77 173 7.0 16.0 0.00 0.00 0.00 25 1016.0
20260906173043 77 185 9.0 16.0 0.00 0.00 0.00 26 1016.1
20260906172520 77 195 9.0 16.0 0.00 0.00 0.00 26 1016.3
20260906172019 76 158 8.0 16.0 0.00 0.00 0.00 27 1016.3
20260906171541 76 211 9.0 15.0 0.00 0.00 0.00 29 1016.4
20260906171018 76 204 7.0 14.0 0.00 0.00 0.00 28 1016.4
20260906170519 75 174 7.0 11.0 0.00 0.00 0.00 30 1016.6
20260906170038 74 185 3.0 11.0 0.00 0.00 0.00 31 1016.6
20260906165522 74 178 4.0 10.0 0.00 0.00 0.00 31 1016.7
20260906165019 73 190 4.0 11.0 0.00 0.00 0.00 32 1016.6
20260906164546 72 199 6.0 11.0 0.00 0.00 0.00 34 1016.6
20260906164018 72 160 4.0 9.0 0.00 0.00 0.00 36 1016.6
20260906163518 71 146 5.0 9.0 0.00 0.00 0.00 36 1016.7
20260906163052 70 184 5.0 8.0 0.00 0.00 0.00 36 1016.7
20260906162521 69 194 2.0 4.0 0.00 0.00 0.00 40 1016.7
20260906162018 69 230 1.0 4.0 0.00 0.00 0.00 40 1016.7
20260906161542 68 0 0.0 2.0 0.00 0.00 0.00 41 1016.7
20260906161020 67 0 0.0 2.0 0.00 0.00 0.00 41 1016.7
20260906160519 66 0 0.0 0.0 0.00 0.00 0.00 39 1016.8
20260906160041 65 0 0.0 0.0 0.00 0.00 0.00 40 1016.8
20260906155519 65 0 0.0 0.0 0.00 0.00 0.00 42 1016.8
20260906155019 64 0 0.0 0.0 0.00 0.00 0.00 42 1016.9
20260906154538 64 0 0.0 0.0 0.00 0.00 0.00 44 1017.0
20260906154020 63 0 0.0 0.0 0.00 0.00 0.00 49 1016.9
20260906153519 62 0 0.0 0.0 0.00 0.00 0.00 50 1017.0
20260906153039 61 0 0.0 0.0 0.00 0.00 0.00 52 1017.0
20260906152518 60 0 0.0 0.0 0.00 0.00 0.00 53 1017.1
20260906152021 59 0 0.0 0.0 0.00 0.00 0.00 47 1017.2
20260906151541 58 0 0.0 0.0 0.00 0.00 0.00 51 1017.2
20260906151019 57 0 0.0 0.0 0.00 0.00 0.00 53 1017.2
20260906150520 56 0 0.0 0.0 0.00 0.00 0.00 56 1017.1
20260906150040 55 0 0.0 0.0 0.00 0.00 0.00 56 1017.0
20260906145518 54 0 0.0 0.0 0.00 0.00 0.00 56 1017.1
20260906145019 53 0 0.0 0.0 0.00 0.00 0.00 59 1017.0
20260906144537 52 0 0.0 0.0 0.00 0.00 0.00 59 1017.1
20260906144021 51 0 0.0 0.0 0.00 0.00 0.00 60 1017.0
20260906143554 51 0 0.0 0.0 0.00 0.00 0.00 62 1017.0
20260906143048 49 0 0.0 0.0 0.00 0.00 0.00 63 1017.0
20260906142519 48 0 0.0 2.0 0.00 0.00 0.00 65 1017.1
20260906142018 48 0 0.0 2.0 0.00 0.00 0.00 64 1017.0
20260906141543 47 0 0.0 1.0 0.00 0.00 0.00 65 1017.0
20260906141022 46 0 0.0 1.0 0.00 0.00 0.00 67 1017.1
20260906140519 46 0 0.0 2.0 0.00 0.00 0.00 66 1017.1
20260906140053 46 0 0.0 2.0 0.00 0.00 0.00 65 1017.1
20260906135520 46 5 0.0 5.0 0.00 0.00 0.00 65 1017.1
20260906135019 45 5 2.0 5.0 0.00 0.00 0.00 65 1017.0
20260906134551 46 28 3.0 6.0 0.00 0.00 0.00 65 1016.8
20260906134019 46 13 2.0 6.0 0.00 0.00 0.00 65 1016.8
20260906133518 46 5 3.0 6.0 0.00 0.00 0.00 65 1016.8
20260906133044 45 47 3.0 7.0 0.00 0.00 0.00 65 1016.8
20260906132520 45 36 3.0 7.0 0.00 0.00 0.00 65 1016.7
20260906132019 45 19 4.0 8.0 0.00 0.00 0.00 65 1016.6
20260906131542 45 29 4.0 9.0 0.00 0.00 0.00 66 1016.6
20260906131019 45 20 4.0 9.0 0.00 0.00 0.00 66 1016.6
20260906130519 45 15 5.0 9.0 0.00 0.00 0.00 66 1016.5
20260906130042 45 360 5.0 8.0 0.00 0.00 0.00 66 1016.5
20260906125518 45 26 5.0 8.0 0.00 0.00 0.00 65 1016.5
20260906125022 45 26 4.0 7.0 0.00 0.00 0.00 65 1016.6
20260906124545 45 13 3.0 8.0 0.00 0.00 0.00 64 1016.5
20260906124020 45 26 4.0 8.0 0.00 0.00 0.00 65 1016.6
20260906123519 46 23 3.0 6.0 0.00 0.00 0.00 64 1016.6
20260906123044 46 13 1.0 5.0 0.00 0.00 0.00 63 1016.5
20260906122518 46 22 2.0 7.0 0.00 0.00 0.00 63 1016.4
20260906122025 46 34 3.0 7.0 0.00 0.00 0.00 64 1016.5
20260906121546 46 13 3.0 5.0 0.00 0.00 0.00 63 1016.4
20260906121019 46 0 1.0 5.0 0.00 0.00 0.00 62 1016.4
20260906120521 46 20 1.0 5.0 0.00 0.00 0.00 62 1016.4
20260906120042 47 23 2.0 6.0 0.00 0.00 0.00 62 1016.5
20260906115517 47 24 3.0 7.0 0.00 0.00 0.00 62 1016.5
20260906115018 47 28 4.0 7.0 0.00 0.00 0.00 62 1016.5
20260906114545 47 22 3.0 9.0 0.00 0.00 0.00 62 1016.4
20260906114019 47 20 4.0 9.0 0.00 0.00 0.00 62 1016.4
20260906113519 47 36 4.0 7.0 0.00 0.00 0.00 62 1016.4
20260906113043 47 12 2.0 7.0 0.00 0.00 0.00 62 1016.4
20260906112519 47 360 4.0 7.0 0.00 0.00 0.00 62 1016.3
20260906112019 47 23 3.0 8.0 0.00 0.00 0.00 62 1016.4
20260906111535 47 15 4.0 9.0 0.00 0.00 0.00 62 1016.4
20260906111019 47 16 6.0 9.0 0.00 0.00 0.00 61 1016.3
20260906110518 47 13 3.0 8.0 0.00 0.00 0.00 61 1016.3
20260906110036 47 17 3.0 9.0 0.00 0.00 0.00 61 1016.4
20260906105519 47 22 5.0 9.0 0.00 0.00 0.00 61 1016.4
20260906105019 47 25 4.0 8.0 0.00 0.00 0.00 61 1016.4
20260906104536 48 26 5.0 9.0 0.00 0.00 0.00 60 1016.3
20260906104018 48 360 5.0 9.0 0.00 0.00 0.00 60 1016.3
20260906103518 48 22 4.0 9.0 0.00 0.00 0.00 60 1016.2
20260906103033 48 5 6.0 9.0 0.00 0.00 0.00 61 1016.1
20260906102518 47 5 4.0 8.0 0.00 0.00 0.00 61 1016.0
20260906102018 47 17 3.0 8.0 0.00 0.00 0.00 62 1016.1
20260906101540 47 11 4.0 8.0 0.00 0.00 0.00 62 1015.9
20260906101020 47 5 5.0 8.0 0.00 0.00 0.00 62 1015.9
20260906100523 47 5 3.0 5.0 0.00 0.00 0.00 61 1015.9
20260906100035 48 11 3.0 5.0 0.00 0.00 0.00 60 1015.9
20260906095520 48 15 1.0 6.0 0.00 0.00 0.00 59 1015.8
20260906095019 48 17 2.0 6.0 0.00 0.00 0.00 59 1015.8
20260906094546 49 355 3.0 7.0 0.00 0.00 0.00 59 1015.6
20260906094019 48 0 3.0 8.0 0.00 0.00 0.00 58 1015.6
20260906093517 48 16 4.0 8.0 0.00 0.00 0.00 59 1015.6
20260906093036 49 9 5.0 8.0 0.00 0.00 0.00 58 1015.5
20260906092518 49 9 5.0 9.0 0.00 0.00 0.00 58 1015.5
20260906092022 49 13 6.0 9.0 0.00 0.00 0.00 57 1015.5
20260906091540 50 17 6.0 8.0 0.00 0.00 0.00 56 1015.4
20260906091020 51 360 3.0 9.0 0.00 0.00 0.00 54 1015.5
20260906090518 50 10 4.0 9.0 0.00 0.00 0.00 55 1015.4
20260906090039 50 22 5.0 8.0 0.00 0.00 0.00 56 1015.5
20260906085518 51 360 4.0 9.0 0.00 0.00 0.00 54 1015.4
20260906085019 51 13 5.0 9.0 0.00 0.00 0.00 54 1015.3
20260906084538 51 20 4.0 9.0 0.00 0.00 0.00 55 1015.5
20260906084019 50 25 4.0 8.0 0.00 0.00 0.00 57 1015.5
20260906083518 49 19 2.0 8.0 0.00 0.00 0.00 58 1015.5
20260906083037 49 21 3.0 10.0 0.00 0.00 0.00 58 1015.4
20260906082518 49 19 5.0 10.0 0.00 0.00 0.00 57 1015.5
20260906082017 49 13 5.0 10.0 0.00 0.00 0.00 57 1015.6
20260906081541 50 16 6.0 9.0 0.00 0.00 0.00 57 1015.6
20260906081018 50 5 5.0 9.0 0.00 0.00 0.00 56 1015.6
20260906080519 50 22 5.0 8.0 0.00 0.00 0.00 55 1015.6
20260906080039 51 20 5.0 8.0 0.00 0.00 0.00 54 1015.6
20260906075519 50 15 5.0 8.0 0.00 0.00 0.00 54 1015.6
20260906075023 51 26 2.0 9.0 0.00 0.00 0.00 53 1015.6
20260906074545 51 0 0.0 9.0 0.00 0.00 0.00 54 1015.6
20260906074019 51 19 6.0 9.0 0.00 0.00 0.00 54 1015.6
20260906073518 52 12 5.0 9.0 0.00 0.00 0.00 53 1015.5
20260906073043 53 5 4.0 10.0 0.00 0.00 0.00 51 1015.3
20260906072519 52 26 3.0 10.0 0.00 0.00 0.00 51 1015.2
20260906072020 51 26 8.0 10.0 0.00 0.00 0.00 54 1015.3
20260906071540 51 5 7.0 10.0 0.00 0.00 0.00 54 1015.3
20260906071020 52 5 6.0 10.0 0.00 0.00 0.00 52 1015.3
20260906070524 53 9 6.0 8.0 0.00 0.00 0.00 51 1015.1
20260906070040 53 13 3.0 9.0 0.00 0.00 0.00 50 1015.2
20260906065519 52 19 6.0 10.0 0.00 0.00 0.00 52 1015.3
20260906065018 52 24 5.0 10.0 0.00 0.00 0.00 52 1015.2
20260906064541 53 34 5.0 10.0 0.00 0.00 0.00 52 1015.1
20260906064020 53 15 6.0 9.0 0.00 0.00 0.00 50 1015.1
20260906063517 52 29 4.0 10.0 0.00 0.00 0.00 51 1015.1
20260906063040 53 5 5.0 10.0 0.00 0.00 0.00 52 1015.0
20260906062518 53 11 1.0 9.0 0.00 0.00 0.00 50 1014.8
20260906062019 52 0 2.0 10.0 0.00 0.00 0.00 50 1015.0
20260906061546 52 16 6.0 10.0 0.00 0.00 0.00 52 1014.9
20260906061019 52 5 8.0 10.0 0.00 0.00 0.00 51 1014.8
20260906060518 53 15 6.0 9.0 0.00 0.00 0.00 51 1015.0
20260906060058 53 32 5.0 9.0 0.00 0.00 0.00 51 1014.9
20260906055519 53 12 3.0 8.0 0.00 0.00 0.00 49 1015.0
20260906055020 53 35 5.0 9.0 0.00 0.00 0.00 50 1014.9
20260906054542 53 15 4.0 10.0 0.00 0.00 0.00 50 1015.0
20260906054019 54 24 5.0 11.0 0.00 0.00 0.00 50 1014.9
20260906053525 54 5 6.0 11.0 0.00 0.00 0.00 49 1014.8
20260906053037 54 12 8.0 11.0 0.00 0.00 0.00 48 1014.8
20260906052522 55 26 7.0 11.0 0.00 0.00 0.00 48 1015.0
20260906052019 55 20 8.0 11.0 0.00 0.00 0.00 47 1015.1
20260906051538 55 16 6.0 10.0 0.00 0.00 0.00 47 1015.1
20260906051019 56 20 6.0 9.0 0.00 0.00 0.00 46 1015.1
20260906050520 56 10 7.0 9.0 0.00 0.00 0.00 46 1015.1
20260906050037 56 5 5.0 9.0 0.00 0.00 0.00 45 1015.2
20260906045521 56 18 6.0 10.0 0.00 0.00 0.00 46 1015.2
20260906045022 56 28 6.0 10.0 0.00 0.00 0.00 46 1015.2
20260906044536 56 15 7.0 12.0 0.00 0.00 0.00 46 1015.3
20260906044024 56 19 7.0 12.0 0.00 0.00 0.00 46 1015.3
20260906043518 56 23 7.0 11.0 0.00 0.00 0.00 46 1015.5
20260906043039 57 5 7.0 11.0 0.00 0.00 0.00 45 1015.4
20260906042516 57 5 7.0 11.0 0.00 0.00 0.00 44 1015.4
20260906042016 58 9 5.0 10.0 0.00 0.00 0.00 44 1015.4
20260906041537 58 21 8.0 10.0 0.00 0.00 0.00 43 1015.4
20260906041017 59 14 3.0 8.0 0.00 0.00 0.00 41 1015.3
20260906040519 59 14 4.0 10.0 0.00 0.00 0.00 42 1015.3
20260906040041 59 18 6.0 10.0 0.00 0.00 0.00 42 1015.3
20260906035524 59 18 7.0 11.0 0.00 0.00 0.00 42 1015.4
20260906035017 59 28 7.0 11.0 0.00 0.00 0.00 42 1015.3
20260906034539 60 16 8.0 10.0 0.00 0.00 0.00 41 1015.3
20260906034018 60 21 7.0 10.0 0.00 0.00 0.00 40 1015.4
20260906033518 61 22 7.0 10.0 0.00 0.00 0.00 40 1015.3
20260906033039 61 13 6.0 10.0 0.00 0.00 0.00 39 1015.4
20260906032518 62 13 6.0 11.0 0.00 0.00 0.00 39 1015.4
20260906032022 62 5 8.0 11.0 0.00 0.00 0.00 38 1015.5
20260906031605 62 17 7.0 10.0 0.00 0.00 0.00 38 1015.4
20260906031018 63 12 6.0 11.0 0.00 0.00 0.00 38 1015.5
20260906030518 63 10 8.0 11.0 0.00 0.00 0.00 36 1015.5
20260906030038 64 19 6.0 10.0 0.00 0.00 0.00 37 1015.5
20260906025524 65 23 7.0 10.0 0.00 0.00 0.00 35 1015.4
20260906025018 66 5 7.0 10.0 0.00 0.00 0.00 34 1015.4
20260906024543 67 33 5.0 9.0 0.00 0.00 0.00 32 1015.3
20260906024019 67 14 4.0 9.0 0.00 0.00 0.00 31 1015.3
20260906023519 68 12 5.0 9.0 0.00 0.00 0.00 31 1015.2
20260906023045 69 21 7.0 9.0 0.00 0.00 0.00 30 1015.1
20260906022518 72 5 3.0 5.0 0.00 0.00 0.00 28 1015.0
20260906022018 74 96 1.0 3.0 0.00 0.00 0.00 26 1015.0
20260906021539 74 0 0.0 0.0 0.00 0.00 0.00 26 1015.0
20260906021022 76 0 0.0 0.0 0.00 0.00 0.00 24 1015.0
20260906020518 77 0 0.0 3.0 0.00 0.00 0.00 22 1015.0
20260906020047 77 0 0.0 3.0 0.00 0.00 0.00 22 1014.9
20260906015519 78 176 0.0 3.0 0.00 0.00 0.00 22 1014.9
20260906015019 79 0 0.0 0.0 0.00 0.00 0.00 22 1014.9
20260906014535 79 0 0.0 5.0 0.00 0.00 0.00 22 1014.8
20260906014021 80 0 0.0 5.0 0.00 0.00 0.00 22 1015.0
20260906013519 80 184 1.0 6.0 0.00 0.00 0.00 20 1015.0
20260906013038 80 0 0.0 8.0 0.00 0.00 0.00 20 1015.0
20260906012520 81 189 4.0 10.0 0.00 0.00 0.00 19 1014.9
20260906012024 81 184 3.0 11.0 0.00 0.00 0.00 19 1014.9
20260906011539 81 156 4.0 11.0 0.00 0.00 0.00 20 1015.0
20260906011018 81 175 4.0 18.0 0.00 0.00 0.00 19 1015.0
20260906010517 82 186 6.0 18.0 0.00 0.00 0.00 18 1014.9
20260906010039 82 164 5.0 16.0 0.00 0.00 0.00 19 1015.0
20260906005516 82 161 8.0 17.0 0.00 0.00 0.00 18 1014.9
20260906005016 82 182 6.0 17.0 0.00 0.00 0.00 18 1015.0
20260906004541 82 150 7.0 17.0 0.00 0.00 0.00 18 1015.0
20260906004018 83 174 8.0 17.0 0.00 0.00 0.00 19 1015.0
20260906003519 83 188 6.0 14.0 0.00 0.00 0.00 18 1015.0
20260906003042 83 199 7.0 13.0 0.00 0.00 0.00 18 1015.0
20260906002517 83 148 6.0 16.0 0.00 0.00 0.00 18 1015.0
20260906002019 83 153 7.0 16.0 0.00 0.00 0.00 18 1015.0
20260906001543 83 170 8.0 15.0 0.00 0.00 0.00 18 1015.0
20260906001023 83 166 5.0 14.0 0.00 0.00 0.00 17 1015.0
20260906000519 83 157 7.0 14.0 0.00 0.00 0.00 18 1015.0
20260906000037 83 173 6.0 17.0 0.00 0.00 0.00 17 1015.1
20260905235516 83 130 9.0 17.0 0.00 0.00 0.00 17 1015.0
20260905235021 83 146 8.0 16.0 0.00 0.00 0.00 17 1015.0
20260905234536 84 103 5.0 16.0 0.00 0.00 0.00 17 1015.0
20260905234016 84 0 0.0 0.0 0.00 0.00 0.00 17 1015.1
20260905233518 84 0 0.0 6.0 0.00 0.00 0.00 17 1015.1